GW4489 Weather Reports


Display with metric or nautical units.
time (UTC)temp
F
wind
direction
speed
MPH
gust
MPH
rain 1hr
in
rain 24hr
in
rain mn
in
humidity
%
barometer
mb
20260506170503 59 263 1.0 5.0 0.00 0.42 0.28 93 1013.3
20260506170014 59 231 2.0 5.0 0.00 0.42 0.28 93 1013.4
20260506165503 59 290 1.0 5.0 0.00 0.42 0.28 92 1013.4
20260506165006 59 257 2.0 4.0 0.00 0.42 0.28 93 1013.5
20260506164520 59 307 0.0 4.0 0.00 0.42 0.28 93 1013.1
20260506164008 59 306 2.0 4.0 0.00 0.42 0.28 93 1013.1
20260506163507 59 271 1.0 6.0 0.00 0.42 0.28 93 1013.0
20260506163024 59 271 0.0 6.0 0.00 0.42 0.28 92 1013.1
20260506162508 59 298 2.0 6.0 0.00 0.42 0.28 93 1013.3
20260506162010 59 280 1.0 7.0 0.00 0.42 0.28 92 1013.4
20260506161534 59 290 2.0 7.0 0.00 0.42 0.28 92 1013.4
20260506161003 59 246 0.0 7.0 0.00 0.42 0.28 92 1013.5
20260506160503 59 254 1.0 5.0 0.00 0.42 0.28 92 1013.4
20260506160010 59 294 1.0 4.0 0.00 0.42 0.28 93 1013.1
20260506155504 59 294 1.0 4.0 0.00 0.42 0.28 93 1013.0
20260506155003 59 294 1.0 5.0 0.00 0.42 0.28 92 1012.9
20260506154516 59 294 1.0 6.0 0.00 0.42 0.28 92 1012.8
20260506154006 59 302 2.0 6.0 0.00 0.42 0.28 92 1012.7
20260506153507 59 5 3.0 6.0 0.00 0.42 0.28 92 1012.7
20260506153020 59 12 2.0 6.0 0.00 0.42 0.28 92 1012.8
20260506152508 60 321 3.0 7.0 0.00 0.42 0.28 92 1012.7
20260506152012 60 289 2.0 7.0 0.00 0.42 0.28 91 1012.6
20260506151532 60 52 0.0 8.0 0.00 0.42 0.28 92 1012.5
20260506151010 60 343 3.0 8.0 0.01 0.42 0.28 91 1012.4
20260506150511 61 327 1.0 7.0 0.01 0.42 0.28 91 1012.3
20260506150032 61 301 2.0 10.0 0.03 0.42 0.28 91 1012.1
20260506145509 62 219 2.0 10.0 0.06 0.42 0.28 91 1011.9
20260506145005 64 252 4.0 10.0 0.08 0.42 0.28 91 1011.9
20260506144514 65 209 4.0 11.0 0.09 0.42 0.28 93 1011.7
20260506144009 65 199 3.0 11.0 0.09 0.42 0.28 93 1011.4
20260506143506 65 202 2.0 11.0 0.09 0.42 0.28 94 1010.6
20260506143035 65 195 3.0 11.0 0.09 0.42 0.28 94 1010.2
20260506142507 64 175 3.0 7.0 0.09 0.42 0.28 94 1010.1
20260506142007 63 214 1.0 4.0 0.09 0.42 0.28 91 1010.2
20260506141522 62 214 0.0 4.0 0.09 0.42 0.28 90 1010.3
20260506141008 62 214 1.0 5.0 0.08 0.41 0.27 90 1010.5
20260506140506 63 214 2.0 5.0 0.08 0.41 0.27 89 1011.4
20260506140033 64 296 2.0 6.0 0.06 0.39 0.25 89 1011.8
20260506135507 64 292 1.0 10.0 0.03 0.36 0.22 90 1012.3
20260506135010 64 209 3.0 10.0 0.01 0.34 0.20 90 1012.1
20260506134509 64 192 4.0 11.0 0.00 0.33 0.19 90 1012.1
20260506134003 65 227 6.0 12.0 0.00 0.33 0.19 90 1012.0
20260506133506 65 221 5.0 15.0 0.00 0.33 0.19 90 1011.9
20260506133018 65 204 7.0 15.0 0.00 0.33 0.19 90 1011.7
20260506132509 64 202 6.0 15.0 0.00 0.33 0.19 90 1011.7
20260506132008 64 218 4.0 14.0 0.00 0.33 0.19 90 1011.6
20260506131503 64 171 5.0 14.0 0.00 0.33 0.19 90 1011.6
20260506131002 64 192 4.0 14.0 0.00 0.33 0.19 90 1011.4
20260506130503 64 188 4.0 12.0 0.00 0.33 0.19 91 1011.5
20260506130005 64 196 6.0 12.0 0.00 0.33 0.19 91 1011.4
20260506125503 64 207 6.0 13.0 0.00 0.33 0.19 91 1011.4
20260506125003 64 196 7.0 13.0 0.00 0.33 0.19 91 1011.3
20260506124506 64 198 6.0 11.0 0.00 0.33 0.19 91 1011.2
20260506124002 64 203 6.0 11.0 0.01 0.33 0.19 91 1011.1
20260506123503 64 195 5.0 11.0 0.01 0.33 0.19 91 1011.1
20260506123012 64 207 5.0 14.0 0.01 0.33 0.19 91 1011.0
20260506122507 64 190 7.0 14.0 0.02 0.33 0.19 91 1010.5
20260506122012 64 207 4.0 12.0 0.04 0.33 0.19 91 1010.4
20260506121520 64 203 5.0 15.0 0.05 0.33 0.19 91 1010.2
20260506121006 64 211 6.0 22.0 0.05 0.33 0.19 91 1010.1
20260506120512 64 211 8.0 22.0 0.07 0.33 0.19 91 1010.2
20260506120024 64 209 8.0 18.0 0.07 0.33 0.19 91 1010.3
20260506115503 64 199 9.0 17.0 0.07 0.33 0.19 91 1010.1
20260506115002 64 138 6.0 19.0 0.07 0.33 0.19 91 1009.9
20260506114505 64 200 7.0 19.0 0.08 0.33 0.19 91 1010.0
20260506114003 63 215 6.0 19.0 0.08 0.32 0.18 91 1009.8
20260506113503 63 183 9.0 19.0 0.09 0.32 0.18 91 1009.7
20260506113012 63 206 1.0 10.0 0.11 0.32 0.18 90 1009.8
20260506112502 63 206 3.0 10.0 0.10 0.31 0.17 90 1010.3
20260506112005 63 215 2.0 5.0 0.09 0.29 0.15 90 1010.3
20260506111515 64 215 3.0 5.0 0.10 0.28 0.14 90 1009.9
20260506111004 64 215 0.0 4.0 0.12 0.28 0.14 90 1010.6
20260506110511 64 215 1.0 5.0 0.11 0.26 0.12 90 1010.8
20260506110022 64 215 0.0 5.0 0.11 0.26 0.12 89 1010.6
20260506105507 64 215 1.0 6.0 0.12 0.26 0.12 89 1010.4
20260506105010 64 215 2.0 10.0 0.12 0.26 0.12 89 1010.3
20260506104527 64 215 4.0 10.0 0.11 0.25 0.11 88 1010.4
20260506104005 64 225 4.0 9.0 0.10 0.24 0.10 88 1010.3
20260506103502 64 205 3.0 11.0 0.09 0.23 0.09 88 1009.8
20260506103014 64 187 2.0 11.0 0.07 0.21 0.07 87 1009.7
20260506102502 64 192 5.0 13.0 0.07 0.21 0.07 86 1009.8
20260506102002 65 166 4.0 15.0 0.06 0.20 0.06 85 1009.7
20260506101523 65 203 6.0 15.0 0.04 0.18 0.04 84 1009.6
20260506101006 65 196 5.0 15.0 0.02 0.16 0.02 83 1009.7
20260506100508 66 198 9.0 20.0 0.01 0.15 0.01 82 1009.9
20260506100018 66 227 7.0 20.0 0.01 0.15 0.01 81 1009.8
20260506095507 67 183 10.0 19.0 0.00 0.14 0.00 80 1009.3
20260506095006 67 182 8.0 17.0 0.00 0.14 0.00 78 1008.9
20260506094524 68 194 8.0 17.0 0.00 0.14 0.00 76 1008.8
20260506094007 68 195 7.0 20.0 0.00 0.14 0.00 75 1008.9
20260506093512 68 161 10.0 20.0 0.00 0.14 0.00 75 1008.8
20260506093026 68 253 9.0 19.0 0.00 0.14 0.00 74 1008.6
20260506092508 68 195 9.0 19.0 0.00 0.14 0.00 74 1008.5
20260506092010 68 175 7.0 16.0 0.00 0.14 0.00 73 1008.3
20260506091510 69 218 6.0 16.0 0.00 0.14 0.00 73 1008.2
20260506091007 68 219 5.0 18.0 0.00 0.14 0.00 73 1008.4
20260506090504 69 159 11.0 21.0 0.00 0.14 0.00 72 1008.4
20260506090017 69 182 7.0 21.0 0.00 0.14 0.00 72 1008.3
20260506085506 69 186 12.0 21.0 0.00 0.14 0.00 71 1008.1
20260506085009 70 181 9.0 23.0 0.00 0.14 0.00 69 1008.2
20260506084528 70 200 15.0 22.0 0.00 0.14 0.00 68 1008.2
20260506084007 70 212 6.0 16.0 0.00 0.14 0.00 68 1008.2
20260506083507 69 164 6.0 16.0 0.00 0.14 0.00 68 1008.0
20260506083026 70 202 4.0 16.0 0.00 0.14 0.00 68 1007.9
20260506082507 70 173 5.0 16.0 0.00 0.14 0.00 68 1007.8
20260506082009 69 205 8.0 17.0 0.00 0.14 0.00 68 1007.9
20260506081526 69 199 8.0 19.0 0.00 0.14 0.00 67 1007.9
20260506081013 69 202 9.0 19.0 0.00 0.14 0.00 67 1007.9
20260506080516 69 169 8.0 18.0 0.00 0.14 0.00 66 1007.9
20260506073507 69 205 4.0 15.0 0.00 0.14 0.00 66 1007.6
20260506073023 69 196 5.0 12.0 0.00 0.14 0.00 66 1007.8
20260506072512 69 192 6.0 16.0 0.00 0.14 0.00 65 1007.7
20260506072008 69 205 9.0 16.0 0.00 0.14 0.00 65 1007.7
20260506071528 69 121 6.0 16.0 0.00 0.14 0.00 66 1007.9
20260506071008 69 197 6.0 19.0 0.00 0.14 0.00 65 1008.0
20260506070506 69 173 9.0 18.0 0.00 0.14 0.00 65 1007.8
20260506062503 69 180 3.0 18.0 0.00 0.14 0.00 64 1008.3
20260506062002 69 194 5.0 15.0 0.00 0.14 0.00 64 1008.6
20260506061504 69 169 5.0 17.0 0.00 0.14 0.00 64 1008.5
20260506061002 69 167 8.0 17.0 0.00 0.14 0.00 64 1008.5
20260506060506 69 196 5.0 16.0 0.00 0.14 0.00 64 1008.5
20260506051009 68 115 7.0 15.0 0.00 0.14 0.00 65 1009.2
20260506050504 68 172 4.0 15.0 0.00 0.14 0.00 66 1009.3
20260506045005 68 182 6.0 18.0 0.00 0.14 0.14 65 1009.4
20260506044511 68 157 6.0 19.0 0.00 0.14 0.14 65 1009.4
20260506044006 68 128 8.0 19.0 0.00 0.14 0.14 66 1009.4
20260506043503 68 225 7.0 17.0 0.00 0.14 0.14 66 1009.4
20260506043015 67 173 7.0 15.0 0.00 0.14 0.14 67 1009.6
20260506042504 67 202 5.0 15.0 0.00 0.14 0.14 67 1009.4
20260506042007 67 211 6.0 16.0 0.00 0.14 0.14 67 1009.4
20260506041527 67 200 6.0 18.0 0.00 0.14 0.14 67 1009.5
20260506041009 67 159 5.0 18.0 0.00 0.14 0.14 67 1009.6
20260506040515 67 140 4.0 15.0 0.00 0.14 0.14 68 1009.6
20260506040027 67 196 7.0 14.0 0.00 0.14 0.14 69 1009.6
20260506035507 66 146 7.0 15.0 0.00 0.14 0.14 69 1009.7
20260506035008 66 182 7.0 15.0 0.00 0.14 0.14 71 1009.6
20260506034510 65 176 4.0 14.0 0.00 0.14 0.14 71 1009.8
20260506034003 65 159 4.0 13.0 0.00 0.14 0.14 72 1009.8
20260506033502 64 155 4.0 13.0 0.00 0.14 0.14 74 1009.6
20260506033012 63 200 5.0 13.0 0.00 0.14 0.14 75 1009.9
20260506032504 63 207 5.0 13.0 0.00 0.14 0.14 77 1009.9
20260506032004 62 169 4.0 9.0 0.00 0.14 0.14 78 1009.8
20260506031523 62 169 3.0 9.0 0.00 0.14 0.14 79 1009.8
20260506031008 61 166 4.0 9.0 0.00 0.14 0.14 81 1009.8
20260506030508 61 179 2.0 12.0 0.00 0.14 0.14 82 1010.0
20260506030025 60 209 4.0 12.0 0.01 0.14 0.14 83 1009.9
20260506025507 60 209 2.0 7.0 0.01 0.14 0.14 85 1009.7
20260506025009 59 165 4.0 7.0 0.01 0.14 0.14 86 1009.7
20260506024526 59 155 2.0 6.0 0.01 0.14 0.14 86 1009.9
20260506024007 59 155 3.0 8.0 0.01 0.14 0.14 87 1009.9
20260506023506 59 138 2.0 8.0 0.03 0.14 0.14 87 1010.2
20260506023028 59 132 3.0 4.0 0.10 0.14 0.14 88 1010.2
20260506022503 59 132 2.0 4.0 0.12 0.14 0.14 87 1010.4
20260506022004 59 130 3.0 4.0 0.12 0.14 0.14 87 1010.5
20260506021513 59 132 2.0 4.0 0.12 0.14 0.14 87 1010.5
20260506021008 59 132 0.0 0.0 0.14 0.14 0.14 86 1010.6
20260506020510 59 132 0.0 2.0 0.14 0.14 0.14 86 1010.6
20260506020023 59 132 0.0 2.0 0.13 0.13 0.13 85 1010.6
20260506015507 59 132 0.0 3.0 0.13 0.13 0.13 84 1010.3
20260506015008 59 132 0.0 6.0 0.13 0.13 0.13 83 1010.3
20260506014529 59 132 2.0 7.0 0.13 0.13 0.13 82 1010.5
20260506014007 60 117 3.0 7.0 0.13 0.13 0.13 81 1010.4
20260506013506 61 157 3.0 5.0 0.11 0.11 0.11 79 1010.5
20260506013029 62 159 2.0 5.0 0.04 0.04 0.04 77 1010.9
20260506012510 63 294 1.0 4.0 0.02 0.02 0.02 74 1010.8
20260506012011 65 217 2.0 4.0 0.02 0.02 0.02 69 1010.7
20260506011528 67 217 1.0 5.0 0.02 0.02 0.02 65 1010.6
20260506011010 68 217 1.0 5.0 0.00 0.00 0.00 55 1010.6
20260506010508 68 171 1.0 7.0 0.00 0.00 0.00 51 1010.2
20260506010023 68 171 2.0 11.0 0.00 0.00 0.00 52 1010.1
20260506005507 68 128 0.0 11.0 0.00 0.00 0.00 52 1009.9
20260506005010 68 209 2.0 7.0 0.00 0.00 0.00 52 1009.9
20260506004534 68 173 2.0 9.0 0.00 0.00 0.00 51 1009.7
20260506004007 68 191 2.0 9.0 0.00 0.00 0.00 50 1009.9
20260506003510 68 162 4.0 9.0 0.00 0.00 0.00 51 1009.8
20260506003026 68 180 2.0 9.0 0.00 0.00 0.00 51 1009.9
20260506002510 68 188 3.0 9.0 0.00 0.00 0.00 50 1009.9
20260506002009 68 155 4.0 9.0 0.00 0.00 0.00 50 1009.9
20260506001527 69 203 3.0 9.0 0.00 0.00 0.00 51 1010.0
20260506001008 69 188 4.0 9.0 0.00 0.00 0.00 50 1009.9
20260506000507 69 174 2.0 9.0 0.00 0.00 0.00 49 1010.0
20260506000035 69 215 4.0 20.0 0.00 0.00 0.00 49 1009.9
20260505235514 70 142 3.0 20.0 0.00 0.00 0.00 48 1009.9
20260505235007 70 166 5.0 15.0 0.00 0.00 0.00 48 1010.0
20260505234519 70 184 4.0 15.0 0.00 0.00 0.00 47 1010.2
20260505234006 71 207 6.0 14.0 0.00 0.00 0.00 47 1010.2
20260505233513 71 167 6.0 14.0 0.00 0.00 0.00 45 1010.2
20260505233020 71 213 5.0 15.0 0.00 0.00 0.00 45 1010.2
20260505232506 72 205 3.0 17.0 0.00 0.00 0.00 45 1009.8
20260505232011 72 206 6.0 17.0 0.00 0.00 0.00 44 1009.7
20260505231524 72 178 6.0 17.0 0.00 0.00 0.00 44 1009.3
20260505231007 72 190 8.0 18.0 0.00 0.00 0.00 42 1009.7
20260505230516 73 182 7.0 18.0 0.00 0.00 0.00 42 1010.1
20260505230032 73 191 8.0 16.0 0.00 0.00 0.00 41 1010.4
20260505225510 73 155 6.0 16.0 0.00 0.00 0.00 42 1010.5
20260505225010 73 202 6.0 16.0 0.00 0.00 0.00 43 1010.6
20260505224536 74 195 5.0 21.0 0.00 0.00 0.00 43 1010.4
20260505224013 74 205 9.0 21.0 0.00 0.00 0.00 44 1010.6
20260505223512 74 182 6.0 19.0 0.00 0.00 0.00 43 1010.6
20260505223030 74 200 6.0 23.0 0.00 0.00 0.00 44 1010.4
20260505222508 75 205 8.0 23.0 0.00 0.00 0.00 43 1010.4
20260505222009 76 212 5.0 16.0 0.00 0.00 0.00 47 1010.2
20260505221524 76 138 6.0 15.0 0.00 0.00 0.00 45 1010.0
20260505221009 77 164 3.0 18.0 0.00 0.00 0.00 45 1010.0
20260505220506 77 172 9.0 18.0 0.00 0.00 0.00 44 1010.2
20260505220036 77 195 7.0 17.0 0.00 0.00 0.00 46 1010.2
20260505215515 77 189 8.0 18.0 0.00 0.00 0.00 44 1010.2
20260505215009 76 186 6.0 18.0 0.00 0.00 0.00 45 1010.2
20260505214547 76 248 8.0 15.0 0.00 0.00 0.00 44 1010.0
20260505214009 77 130 7.0 14.0 0.00 0.00 0.00 44 1010.0
20260505213512 77 172 7.0 19.0 0.00 0.00 0.00 44 1010.0
20260505213045 76 360 6.0 19.0 0.00 0.00 0.00 46 1010.1
20260505212510 76 157 5.0 16.0 0.00 0.00 0.00 46 1010.3
20260505212003 77 158 8.0 18.0 0.00 0.00 0.00 44 1010.2
20260505211514 77 188 6.0 18.0 0.00 0.00 0.00 43 1010.0
20260505211007 76 201 10.0 18.0 0.00 0.00 0.00 45 1010.1
20260505210503 77 171 9.0 17.0 0.00 0.00 0.00 44 1010.2
20260505210015 76 199 6.0 16.0 0.00 0.00 0.00 45 1010.3
20260505205507 76 202 7.0 16.0 0.00 0.00 0.00 45 1010.4
20260505205006 75 121 4.0 16.0 0.00 0.00 0.00 46 1010.4
20260505204516 77 207 4.0 16.0 0.00 0.00 0.00 48 1010.7
20260505204004 77 187 10.0 16.0 0.00 0.00 0.00 44 1010.9
20260505203505 76 188 6.0 15.0 0.00 0.00 0.00 46 1010.8
20260505203015 74 109 7.0 15.0 0.00 0.00 0.00 50 1010.9
20260505202504 74 180 6.0 23.0 0.00 0.00 0.00 48 1010.9
20260505202007 74 205 7.0 23.0 0.00 0.00 0.00 49 1011.0
20260505201518 75 175 5.0 16.0 0.00 0.00 0.00 48 1011.0
20260505201007 75 167 8.0 15.0 0.00 0.00 0.00 47 1011.1
20260505200508 74 118 6.0 15.0 0.00 0.00 0.00 50 1011.3
20260505200018 73 184 4.0 15.0 0.00 0.00 0.00 53 1011.5
20260505195506 71 169 3.0 11.0 0.00 0.00 0.00 55 1011.7
20260505195006 71 200 5.0 12.0 0.00 0.00 0.00 52 1011.8
20260505194516 71 200 4.0 13.0 0.00 0.00 0.00 53 1012.0
20260505194001 71 167 6.0 14.0 0.00 0.00 0.00 52 1011.7
20260505193503 72 208 7.0 14.0 0.00 0.00 0.00 53 1011.8
20260505193033 72 211 3.0 14.0 0.00 0.00 0.00 54 1012.0
20260505192505 72 165 4.0 14.0 0.00 0.00 0.00 53 1012.0
20260505192005 73 221 4.0 12.0 0.00 0.00 0.00 54 1012.1
20260505191519 73 142 4.0 16.0 0.00 0.00 0.00 52 1012.2
20260505191006 74 224 5.0 18.0 0.00 0.00 0.00 53 1012.2
20260505190506 75 160 7.0 18.0 0.00 0.00 0.00 49 1012.2
20260505190030 76 147 6.0 13.0 0.00 0.00 0.00 54 1012.6
20260505185510 74 138 6.0 13.0 0.00 0.00 0.00 51 1012.8
20260505185009 71 195 4.0 13.0 0.00 0.00 0.00 54 1012.9
20260505184524 71 193 7.0 13.0 0.00 0.00 0.00 54 1012.8
20260505184008 72 193 4.0 11.0 0.00 0.00 0.00 55 1012.7
20260505183507 72 189 4.0 21.0 0.00 0.00 0.00 53 1012.6
20260505183036 72 168 9.0 21.0 0.00 0.00 0.00 51 1012.5
20260505182506 73 178 11.0 21.0 0.00 0.00 0.00 52 1012.9
20260505182004 72 177 9.0 16.0 0.00 0.00 0.00 53 1012.7
20260505181517 72 205 8.0 22.0 0.00 0.00 0.00 52 1012.7
20260505181011 72 188 8.0 22.0 0.00 0.00 0.00 52 1012.8
20260505180501 71 193 8.0 19.0 0.00 0.00 0.00 53 1012.9
20260505180003 71 209 7.0 14.0 0.00 0.00 0.00 52 1012.8
20260505175503 71 202 8.0 17.0 0.00 0.00 0.00 52 1013.1
20260505175002 71 186 9.0 23.0 0.00 0.00 0.00 52 1013.2
20260505174504 72 187 10.0 23.0 0.00 0.00 0.00 51 1013.2
20260505174004 72 209 7.0 18.0 0.00 0.00 0.00 52 1013.2
20260505173503 72 205 11.0 20.0 0.00 0.00 0.00 54 1013.2
20260505173007 73 241 7.0 20.0 0.00 0.00 0.00 55 1013.2
20260505172503 72 228 4.0 21.0 0.00 0.00 0.00 56 1013.3
20260505172002 72 190 11.0 21.0 0.00 0.00 0.00 53 1013.4
20260505171526 72 175 8.0 19.0 0.00 0.00 0.00 54 1013.6
20260505171005 73 179 6.0 19.0 0.00 0.00 0.00 56 1013.7